Time,TemperatureF,DewpointF,PressureIn,WindDirection,WindDirectionDegrees,WindSpeedMPH,WindSpeedGustMPH,Humidity,HourlyPrecipIn,Conditions,Clouds,dailyrainin,SoftwareType,DateUTC
2013-08-29 00:18:00,78.0,72.0,29.99,SSW,210,1.0,-999.0,83,-99.99,,,-99.99,,2013-08-29 04:18:00,
2013-08-29 00:28:00,78.0,72.0,29.99,WSW,241,2.0,-999.0,83,-99.99,,,-99.99,,2013-08-29 04:28:00,
2013-08-29 00:45:00,78.0,72.0,29.99,SW,218,2.0,-999.0,83,-99.99,,,-99.99,,2013-08-29 04:45:00,
2013-08-29 00:54:00,78.0,72.0,29.99,SW,218,2.0,-999.0,83,-99.99,,,-99.99,,2013-08-29 04:54:00,
2013-08-29 01:14:00,78.0,72.0,29.98,SW,226,2.0,-999.0,83,-99.99,,,-99.99,,2013-08-29 05:14:00,
2013-08-29 01:23:00,78.0,73.0,29.98,SW,214,1.0,-999.0,84,-99.99,,,-99.99,,2013-08-29 05:23:00,
2013-08-29 01:42:00,78.0,73.0,29.98,SW,227,2.0,-999.0,84,-99.99,,,-99.99,,2013-08-29 05:42:00,
2013-08-29 01:52:00,78.0,73.0,29.97,SW,224,2.0,-999.0,85,-99.99,,,-99.99,,2013-08-29 05:52:00,
2013-08-29 02:12:00,77.0,72.0,29.97,SW,234,2.0,-999.0,86,-99.99,,,-99.99,,2013-08-29 06:12:00,
2013-08-29 02:22:00,77.0,72.0,29.98,WNW,284,1.0,-999.0,86,-99.99,,,-99.99,,2013-08-29 06:22:00,
2013-08-29 02:43:00,77.0,72.0,29.97,South,188,3.0,-999.0,86,-99.99,,,-99.99,,2013-08-29 06:43:00,
2013-08-29 02:52:00,77.0,72.0,29.96,WNW,287,2.0,-999.0,86,-99.99,,,-99.99,,2013-08-29 06:52:00,
2013-08-29 03:12:00,77.0,73.0,29.96,SW,219,2.0,-999.0,87,-99.99,,,-99.99,,2013-08-29 07:12:00,
2013-08-29 03:22:00,77.0,73.0,29.96,SW,235,2.0,-999.0,87,-99.99,,,-99.99,,2013-08-29 07:22:00,
2013-08-29 03:42:00,77.0,73.0,29.96,SW,227,2.0,-999.0,88,-99.99,,,-99.99,,2013-08-29 07:42:00,
2013-08-29 03:53:00,77.0,73.0,29.96,WSW,238,3.0,-999.0,88,-99.99,,,-99.99,,2013-08-29 07:53:00,
2013-08-29 04:12:00,77.0,73.0,29.96,WNW,285,3.0,-999.0,88,-99.99,,,-99.99,,2013-08-29 08:12:00,
2013-08-29 04:22:00,77.0,73.0,29.96,SW,227,3.0,-999.0,88,-99.99,,,-99.99,,2013-08-29 08:22:00,
2013-08-29 04:42:00,77.0,73.0,29.96,SW,222,3.0,-999.0,88,-99.99,,,-99.99,,2013-08-29 08:42:00,
2013-08-29 04:52:00,77.0,73.0,29.96,West,267,2.0,-999.0,88,-99.99,,,-99.99,,2013-08-29 08:52:00,
2013-08-29 05:12:00,76.0,72.0,29.96,SW,224,2.0,-999.0,88,-99.99,,,-99.99,,2013-08-29 09:12:00,
2013-08-29 05:22:00,76.0,73.0,29.96,WSW,240,2.0,-999.0,89,-99.99,,,-99.99,,2013-08-29 09:22:00,
2013-08-29 05:43:00,76.0,72.0,29.96,WSW,249,2.0,-999.0,88,-99.99,,,-99.99,,2013-08-29 09:43:00,
2013-08-29 05:55:00,76.0,72.0,29.96,West,275,2.0,-999.0,88,-99.99,,,-99.99,,2013-08-29 09:55:00,
2013-08-29 06:15:00,76.0,72.0,29.95,West,263,1.0,-999.0,88,-99.99,,,-99.99,,2013-08-29 10:15:00,
2013-08-29 06:24:00,76.0,72.0,29.96,WNW,289,2.0,-999.0,87,-99.99,,,-99.99,,2013-08-29 10:24:00,
2013-08-29 06:53:00,76.0,72.0,29.96,SW,217,1.0,-999.0,87,-99.99,,,-99.99,,2013-08-29 10:53:00,
2013-08-29 07:12:00,76.0,72.0,29.96,SW,219,2.0,-999.0,88,-99.99,,,-99.99,,2013-08-29 11:12:00,
2013-08-29 07:22:00,75.0,71.0,29.96,WSW,238,1.0,-999.0,88,-99.99,,,-99.99,,2013-08-29 11:22:00,
2013-08-29 07:42:00,75.0,71.0,29.96,West,273,1.0,-999.0,88,-99.99,,,-99.99,,2013-08-29 11:42:00,
2013-08-29 07:52:00,75.0,72.0,29.97,SW,227,1.0,-999.0,89,-99.99,,,-99.99,,2013-08-29 11:52:00,
2013-08-29 08:12:00,76.0,72.0,29.97,West,266,2.0,-999.0,88,-99.99,,,-99.99,,2013-08-29 12:12:00,
2013-08-29 08:22:00,76.0,72.0,29.97,West,279,1.0,-999.0,87,-99.99,,,-99.99,,2013-08-29 12:22:00,
2013-08-29 08:42:00,76.0,71.0,29.97,SW,229,2.0,-999.0,85,-99.99,,,-99.99,,2013-08-29 12:42:00,
2013-08-29 08:52:00,77.0,72.0,29.97,West,259,2.0,-999.0,84,-99.99,,,-99.99,,2013-08-29 12:52:00,
2013-08-29 09:12:00,77.0,71.0,29.97,SSW,192,2.0,-999.0,83,-99.99,,,-99.99,,2013-08-29 13:12:00,
2013-08-29 09:22:00,78.0,72.0,29.97,WSW,238,3.0,-999.0,81,-99.99,,,-99.99,,2013-08-29 13:22:00,
2013-08-29 09:42:00,79.0,72.0,29.97,WSW,238,2.0,-999.0,79,-99.99,,,-99.99,,2013-08-29 13:42:00,
2013-08-29 09:52:00,80.0,72.0,29.97,WNW,287,1.0,-999.0,77,-99.99,,,-99.99,,2013-08-29 13:52:00,
2013-08-29 10:11:00,81.0,72.0,29.96,West,269,3.0,-999.0,75,-99.99,,,-99.99,,2013-08-29 14:11:00,
2013-08-29 10:22:00,82.0,73.0,29.96,SSW,206,3.0,-999.0,75,-99.99,,,-99.99,,2013-08-29 14:22:00,
2013-08-29 10:42:00,83.0,73.0,29.96,WNW,292,3.0,-999.0,72,-99.99,,,-99.99,,2013-08-29 14:42:00,
2013-08-29 10:52:00,83.0,73.0,29.96,WNW,288,4.0,-999.0,72,-99.99,,,-99.99,,2013-08-29 14:52:00,
2013-08-29 11:12:00,84.0,74.0,29.96,SSE,167,3.0,-999.0,72,-99.99,,,-99.99,,2013-08-29 15:12:00,
2013-08-29 11:22:00,85.0,75.0,29.96,SSW,198,2.0,-999.0,71,-99.99,,,-99.99,,2013-08-29 15:22:00,
2013-08-29 11:43:00,85.0,74.0,29.96,WSW,237,3.0,-999.0,69,-99.99,,,-99.99,,2013-08-29 15:43:00,
2013-08-29 11:53:00,86.0,74.0,29.95,West,281,4.0,-999.0,67,-99.99,,,-99.99,,2013-08-29 15:53:00,
2013-08-29 12:13:00,86.0,74.0,29.95,WNW,290,3.0,-999.0,67,-99.99,,,-99.99,,2013-08-29 16:13:00,
2013-08-29 12:24:00,87.0,74.0,29.95,SW,217,4.0,-999.0,66,-99.99,,,-99.99,,2013-08-29 16:24:00,
2013-08-29 12:43:00,88.0,75.0,29.94,WSW,239,3.0,-999.0,65,-99.99,,,-99.99,,2013-08-29 16:43:00,
2013-08-29 12:53:00,88.0,74.0,29.94,WNW,291,5.0,-999.0,63,-99.99,,,-99.99,,2013-08-29 16:53:00,
2013-08-29 13:13:00,89.0,75.0,29.93,WNW,288,3.0,-999.0,64,-99.99,,,-99.99,,2013-08-29 17:13:00,
2013-08-29 13:23:00,89.0,74.0,29.93,SW,233,5.0,-999.0,62,-99.99,,,-99.99,,2013-08-29 17:23:00,
2013-08-29 13:44:00,89.0,74.0,29.93,West,276,3.0,-999.0,61,-99.99,,,-99.99,,2013-08-29 17:44:00,
2013-08-29 13:52:00,90.0,74.0,29.92,WSW,246,3.0,-999.0,60,-99.99,,,-99.99,,2013-08-29 17:52:00,
2013-08-29 14:12:00,91.0,74.0,29.92,SW,228,2.0,-999.0,57,-99.99,,,-99.99,,2013-08-29 18:12:00,
2013-08-29 14:22:00,91.0,75.0,29.92,SW,225,2.0,-999.0,59,-99.99,,,-99.99,,2013-08-29 18:22:00,
2013-08-29 14:42:00,92.0,77.0,29.91,SW,228,2.0,-999.0,62,-99.99,,,-99.99,,2013-08-29 18:42:00,
2013-08-29 14:52:00,91.0,77.0,29.91,South,171,3.0,-999.0,63,-99.99,,,-99.99,,2013-08-29 18:52:00,
2013-08-29 15:11:00,92.0,75.0,29.91,SW,215,1.0,-999.0,58,-99.99,,,-99.99,,2013-08-29 19:11:00,
2013-08-29 15:22:00,92.0,79.0,29.91,South,184,4.0,-999.0,66,-99.99,,,-99.99,,2013-08-29 19:22:00,
2013-08-29 15:42:00,90.0,78.0,29.90,South,178,5.0,-999.0,69,-99.99,,,-99.99,,2013-08-29 19:42:00,
2013-08-29 15:52:00,89.0,77.0,29.89,SW,227,6.0,-999.0,69,-99.99,,,-99.99,,2013-08-29 19:52:00,
2013-08-29 16:13:00,89.0,78.0,29.89,SSW,209,6.0,-999.0,70,-99.99,,,-99.99,,2013-08-29 20:13:00,
2013-08-29 16:22:00,89.0,78.0,29.89,SSW,209,6.0,-999.0,71,-99.99,,,-99.99,,2013-08-29 20:22:00,
2013-08-29 16:42:00,90.0,79.0,29.89,South,182,5.0,-999.0,71,-99.99,,,-99.99,,2013-08-29 20:42:00,
2013-08-29 16:52:00,90.0,79.0,29.89,SSE,154,3.0,-999.0,71,-99.99,,,-99.99,,2013-08-29 20:52:00,
2013-08-29 17:12:00,89.0,78.0,29.89,SSE,165,4.0,-999.0,71,-99.99,,,-99.99,,2013-08-29 21:12:00,
2013-08-29 17:22:00,88.0,79.0,29.89,South,175,2.0,-999.0,74,-99.99,,,-99.99,,2013-08-29 21:22:00,
2013-08-29 17:44:00,87.0,78.0,29.89,SSW,203,3.0,-999.0,76,-99.99,,,-99.99,,2013-08-29 21:44:00,
2013-08-29 17:54:00,84.0,79.0,29.88,SSW,196,4.0,-999.0,84,-99.99,,,-99.99,,2013-08-29 21:54:00,
2013-08-29 18:14:00,83.0,78.0,29.88,SSW,198,2.0,-999.0,86,-99.99,,,-99.99,,2013-08-29 22:14:00,
2013-08-29 18:24:00,82.0,77.0,29.88,SSW,204,2.0,-999.0,86,-99.99,,,-99.99,,2013-08-29 22:24:00,
2013-08-29 18:43:00,82.0,77.0,29.88,SSW,209,0.0,-999.0,86,-99.99,,,-99.99,,2013-08-29 22:43:00,
2013-08-29 18:53:00,82.0,77.0,29.88,South,182,1.0,-999.0,86,-99.99,,,-99.99,,2013-08-29 22:53:00,
2013-08-29 19:13:00,82.0,77.0,29.88,SSW,192,1.0,-999.0,85,-99.99,,,-99.99,,2013-08-29 23:13:00,
2013-08-29 19:22:00,81.0,75.0,29.88,WSW,238,1.0,-999.0,83,-99.99,,,-99.99,,2013-08-29 23:22:00,
2013-08-29 19:53:00,81.0,76.0,29.88,SW,236,2.0,-999.0,86,-99.99,,,-99.99,,2013-08-29 23:53:00,
2013-08-29 20:12:00,80.0,75.0,29.89,SSW,207,2.0,-999.0,85,-99.99,,,-99.99,,2013-08-30 00:12:00,
2013-08-29 20:22:00,80.0,75.0,29.90,South,189,2.0,-999.0,84,-99.99,,,-99.99,,2013-08-30 00:22:00,
2013-08-29 20:42:00,79.0,74.0,29.90,SSW,213,0.0,-999.0,84,-99.99,,,-99.99,,2013-08-30 00:42:00,
2013-08-29 20:52:00,79.0,74.0,29.89,SW,219,0.0,-999.0,84,-99.99,,,-99.99,,2013-08-30 00:52:00,
2013-08-29 21:12:00,78.0,73.0,29.91,SW,219,0.0,-999.0,84,-99.99,,,-99.99,,2013-08-30 01:12:00,
2013-08-29 21:22:00,78.0,73.0,29.91,SW,219,0.0,-999.0,85,-99.99,,,-99.99,,2013-08-30 01:22:00,
2013-08-29 21:42:00,78.0,73.0,29.91,SW,219,0.0,-999.0,85,-99.99,,,-99.99,,2013-08-30 01:42:00,
2013-08-29 21:52:00,78.0,73.0,29.91,SW,219,0.0,-999.0,86,-99.99,,,-99.99,,2013-08-30 01:52:00,
2013-08-29 22:11:00,78.0,73.0,29.93,NNW,342,1.0,-999.0,86,-99.99,,,-99.99,,2013-08-30 02:11:00,
2013-08-29 22:22:00,80.0,74.0,29.93,NNW,334,3.0,-999.0,82,-99.99,,,-99.99,,2013-08-30 02:22:00,
2013-08-29 22:42:00,81.0,75.0,29.94,NNW,340,7.0,-999.0,82,-99.99,,,-99.99,,2013-08-30 02:42:00,
2013-08-29 22:52:00,78.0,73.0,29.94,WNW,284,5.0,-999.0,86,-99.99,,,-99.99,,2013-08-30 02:52:00,
2013-08-29 23:12:00,76.0,73.0,29.93,West,266,2.0,-999.0,90,-99.99,,,-99.99,,2013-08-30 03:12:00,
2013-08-29 23:22:00,76.0,73.0,29.94,NNW,342,2.0,-999.0,91,-99.99,,,-99.99,,2013-08-30 03:22:00,
2013-08-29 23:55:00,76.0,73.0,29.93,NW,321,1.0,-999.0,91,-99.99,,,-99.99,,2013-08-30 03:55:00,